Regional Weather Roundup
Issued by NWS

Home | Current Version | Previous Version | Text Only | Print | Product List | Glossary Off
Versions: 1 2 3 4 5 6 7 8 9 10 11 12 13 14 15 16 17 18 19 20 21 22 23 24 25 26 27 28 29 30 31 32 33 34 35 36 37 38 39 40 41 42 43 44 45 46 47 48 49 50

000
ASUS45 KCYS 022010
RWRWY

WYOMING REGIONAL WEATHER ROUNDUP
NATIONAL WEATHER SERVICE CHEYENNE WY
200 PM MDT MON MAY 02 2016

NOTE:  "FAIR" INDICATES FEW OR NO CLOUDS BELOW 12,000 FEET
WITH NO SIGNIFICANT WEATHER AND/OR OBSTRUCTIONS TO VISIBILITY.

WYZ001-022100-
YELLOWSTONE NATIONAL PARK

CITY           SKY/WX    TMP DP  RH WIND       PRES   REMARKS
LK YELLOWSTONE   N/A     47  17  30 SE6       30.29F
W YELLOWSTONE  NOT AVBL

$$
WYZ002>013-054>058-071-098>099-022100-
NORTHERN WYOMING

CITY           SKY/WX    TMP DP  RH WIND       PRES   REMARKS
JACKSON        SUNNY     57  18  21 SW8       30.23F
CODY           FAIR      61  28  29 N6        30.18F
GREYBULL       FAIR      64  23  21 W6        30.15F
WORLAND        FAIR      60  27  28 SE5       30.16F
SHERIDAN       FAIR      64  36  35 NW8       30.15F
BUFFALO          N/A    N/A N/A N/A MISG      30.16F
GILLETTE       FAIR      61  33  35 NW18G24   30.11F
HULETT         FAIR      59  32  36 N13G22    30.12S
NEWCASTLE      FAIR      61  27  27 NW20G28   30.10S

$$
WYZ014>020-022>026-101>103-022100-
CENTRAL WYOMING

CITY           SKY/WX    TMP DP  RH WIND       PRES   REMARKS
BIG PINEY      FAIR      54   8  16 S5        30.26F
PINEDALE       FAIR      54  10  17 CALM      30.25F
DUBOIS         FAIR      59   3  10 NE6       30.20F
LANDER         FAIR      55  26  32 CALM      30.19F
RIVERTON       FAIR      56  26  31 CALM      30.22F
CASPER         FAIR      57  26  30 W10       30.18F
DOUGLAS        FAIR      60  31  33 W21G30    30.15F

$$
WYZ021-027>030-104>119-022100-
SOUTHERN WYOMING

CITY           SKY/WX    TMP DP  RH WIND       PRES   REMARKS
EVANSTON       FAIR      53  18  25 VRB7G17   30.26F
KEMMERER         N/A     52  14  22 S7        30.27F
FORT BRIDGER   CLEAR     52  25  35 NW6       30.30F
ROCK SPRINGS   FAIR      49  15  25 VRB7      30.27S
DIXON          FAIR      54  25  31 W9        30.26F
RAWLINS        FAIR      53   8  16 NW5       30.23F
SARATOGA       FAIR      54  19  26 NW13      30.24R
LARAMIE        FAIR      40  24  53 W9        30.21F WCI  34
CHEYENNE       FAIR      52  13  21 NW16G22   30.17F
TORRINGTON     FAIR      61  26  26 W13G23    30.11F

$$



USA.gov is the U.S. government's official web portal to all federal, state and local government web resources and services.